• Processing (Info)

  • MPEC 2022-U200 : 2022 UQ6

    The following Minor Planet Electronic Circular may be linked-to from your own Web pages, but must not otherwise be redistributed electronically.

    A form allowing access to any MPEC is at the bottom of this page.


    Read MPEC 2022-U199 Read MPEC 2022-U201


    M.P.E.C. 2022-U200                             Issued 2022 October 22, 16:09 UT
    
         The Minor Planet Electronic Circulars contain information on unusual
             minor planets and routine data on comets.  They are published
        on behalf of Division F of the International Astronomical Union by the
              Minor Planet Center, Smithsonian Astrophysical Observatory,
                              Cambridge, MA 02138, U.S.A.
    
                 Prepared using the Tamkin Foundation Computer Network
    
                                  MPC@CFA.HARVARD.EDU
                URL https://www.minorplanetcenter.net/    ISSN 1523-6714
    
                                    2022 UQ6                                 
    
    
    Observations:
         K22U06Q* C2022 10 20.52188702 46 19.51 +04 45 15.7          16.4 GXEU200381
         K22U06Q  C2022 10 20.52195602 46 20.50 +04 44 57.8          16.9 GXEU200381
         K22U06Q  C2022 10 20.54660902 53 15.13 +02 51 20.2          16.9 GXEU200381
         K22U06Q  C2022 10 20.54666702 53 16.11 +02 51 04.0          16.7 GXEU200381
         K22U06Q  C2022 10 20.60004603 07 14.55 -01 02 17.7          17.6 GXEU200381
         K22U06Q  C2022 10 20.60015003 07 16.12 -01 02 44.0          17.3 GXEU200381
         K22U06Q  C2022 10 20.65163203 19 32.64 -04 29 01.6          17.5 GXEU200381
         K22U06Q  C2022 10 20.65173603 19 34.11 -04 29 23.1          17.8 GXEU200381
         K22U06Q  C2022 10 20.69872703 29 50.59 -07 20 25.4          17.3 GXEU200381
         K22U06Q  C2022 10 20.69881903 29 51.85 -07 20 43.4          18.0 GXEU200381
         K22U06Q KC2022 10 20.78235503 47 23.781-11 50 33.50         19.0 GXEU200O75
         K22U06Q KC2022 10 20.78351303 47 36.351-11 53 52.36         18.4 GXEU200O75
         K22U06Q KC2022 10 20.78467003 47 49.042-11 57 12.11         18.3 GXEU200O75
         K22U06Q KC2022 10 21.08628804 34 51.947-21 49 20.96               XEU200Y00
         K22U06Q KC2022 10 21.08923704 35 10.981-21 53 52.91               XEU200Y00
         K22U06Q KC2022 10 21.58826305 15 14.43 -29 39 11.9                VEU200474
         K22U06Q KC2022 10 21.59022905 15 20.45 -29 40 23.4          20.6 GVEU200474
         K22U06Q KC2022 10 21.59220605 15 26.71 -29 41 35.4          20.5 GVEU200474
    
    Observer details:
    381 Tokyo-Kiso.  Observer J. Beniyama.  1.05-m f/3.1 Schmidt + CCD.
    474 Mount John Observatory, Lake Tekapo.  Observers A. C. Gilmore, P. M.
        Kilmartin.  Measurer P. M. Kilmartin.  1.0-m f/7.7 reflector + CCD.
    O75 ISON-Hureltogoot Observatory.  Observer L. Elenin.  0.4-m f/2.4 reflector
        + CCD.
    Y00 SONEAR Observatory, Oliveira.  Observer C. Jacques.  0.45-m f/2.9
        reflector + CCD.
    
    Orbital elements:
    2022 UQ6                                                 Earth MOID = 0.0035 AU
    Epoch 2022 Aug. 9.0 TT = JDT 2459800.5                  Bell                    
    M 327.29524              (2000.0)            P               Q                  
    n   0.45944050     Peri.  178.52834     +0.90403894     -0.41295213             
    a   1.6633483      Node   206.73011     +0.38962811     +0.90229896             
    e   0.3997302      Incl.   14.20595     +0.17579399     +0.12380273             
    P   2.15           H   29.13          G   0.15           U   8                  
    Residuals in seconds of arc
    221020 381  1.3+  0.8-    221020 381  0.6+  2.2-    221020 O75  0.3-  0.5-
    221020 381  1.6-  0.7+    221020 381  1.3+  0.1+    221021 Y00  2.7+  0.8-
    221020 381  0.8-  0.9+    221020 381  1.0+  0.5-    221021 Y00  2.1+  2.3-
    221020 381  0.4-  0.5+    221020 381  2.5+  0.6+    221021 474  0.1+  0.4-
    221020 381  0.9+  0.5-    221020 O75  0.4+  0.2+    221021 474  1.0-  0.1+
    221020 381  1.0+  0.7-    221020 O75  1.1-  0.7+    221021 474  0.8+  0.3+
    
    Ephemeris:
    2022 UQ6                 a,e,i = 1.66, 0.40, 14                  q = 0.9985
    Date    TT    R. A. (2000) Decl.     Delta      r    Elong.  Phase     V
    2022 09 22    18 48 34.4 +40 55 49   0.1528  1.0406    99.7    72.0    27.7
    ...
    2022 10 07    18 50 43.7 +41 21 42   0.07418 1.0072    93.8    82.0    26.4
    ...
    2022 10 15    19 05 55.2 +42 34 32   0.03010 0.9995    93.3    85.0    24.5
    ...
    2022 10 21    04 22 22.8 -19 31 51   0.0044980.9986   130.2    49.6    19.2
    2022 10 22    05 33 47.8 -32 45 47   0.0095870.9988   110.2    69.3    21.5
    2022 10 23    05 58 17.9 -36 07 16   0.01504 0.9990   104.6    74.5    22.6
    ...
    2022 10 29    06 29 26.5 -39 37 04   0.04827 1.0032   100.2    77.1    25.2
    ...
    2022 11 06    06 35 01.1 -40 06 28   0.09201 1.0151   102.4    72.5    26.5
    ...
    2022 11 21    06 32 14.2 -39 30 28   0.1701  1.0556   108.9    62.3    27.6
    
    M. P. C. Staff               (C) Copyright 2022 MPC           M.P.E.C. 2022-U200
    


    Read MPEC 2022-U199 Read MPEC 2022-U201


    MPEC number:

    Enter an MPEC number in one of the following forms:

    • 1997-B01 (the full form)
    • J97B01 (the packed version of the full form)
    • B01 (the abbreviated form)